Location: Dodge City Co - Operative Exchange Grain Elevator Number 8
(38.1218°N, 99.7124°W)
Time: 02:36:44
(UTC+00:00)

NOSS 3-4 (C) - Pass Details

Date: 03 March 2021
Orbit: 873 x 1339 km, 63.4° (Epoch: 13 April)

Event Time Altitude Azimuth Distance (km) Brightness Sun altitude
Rises 12:08:14 0° 205° (SSW) 3,450 6.1 -12.4°
Reaches altitude 10° 12:10:40 10° 204° (SSW) 2,513 5.4 -12.0°
Maximum altitude 12:16:25 74° 120° (ESE) 926 3.6 -10.8°
Drops below altitude 10° 12:22:29 10° 36° (NE) 2,650 6.3 -9.6°
Sets 12:25:07 0° 35° (NE) 3,652 7.0 -9.1°
